{"data":{"norad_id":67196,"intl_designator":"2025-304E","name":"STARLINK-36239","alt_names":[],"object_type":"PAYLOAD","status":"ACTIVE","operator":null,"country":"US","launch_date":"2025-12-17","launch_site_code":"AFWTR","launch_vehicle":null,"mission":null,"orbit_class":"UNKNOWN","rcs_meters":null,"size_class":null,"mass_kg":null,"dimensions":null,"purposes":["comms"],"wikipedia_slug":null,"has_3d_model":false,"image_url":null,"decayed_at":null,"tle_current":{"epoch":"2026-09-20T14:02:17.431008Z","epoch_age_seconds":71387,"freshness":"FRESH","line1":"1 67196U 25304E   26263.58492397  .00007760  00000+0  65699-3 0  9996","line2":"2 67196  70.0014  43.2357 0003033 264.9541  95.1272 14.98355375 43077","mean_motion":14.98355375,"eccentricity":0.0003033,"inclination_deg":70.0014,"raan_deg":43.2357,"arg_perigee_deg":264.9541,"mean_anomaly_deg":95.1272,"bstar":0.00065699,"rev_number":4307,"period_min":96.105371531103,"perigee_km":569.86945225335,"apogee_km":574.08539166171,"semimajor_km":6950.1144219575,"source":"CELESTRAK","updated_at":"2026-09-21T09:00:36.135916Z"}}}